TimeCST,TemperatureF,Dew PointF,Humidity,Sea Level PressureIn,VisibilityMPH,Wind Direction,Wind SpeedMPH,Gust SpeedMPH,PrecipitationIn,Events,Conditions,WindDirDegrees,DateUTC
12:15 AM,41.0,30.2,65,29.69,10.0,SW,19.6,-,N/A,,Clear,220,2013-01-11 06:15:00
12:35 AM,42.8,30.2,61,29.68,10.0,SW,20.7,-,N/A,,Clear,220,2013-01-11 06:35:00
12:55 AM,41.0,32.0,70,29.69,10.0,SW,17.3,-,N/A,,Clear,230,2013-01-11 06:55:00
1:15 AM,41.0,32.0,70,29.68,10.0,SW,17.3,-,N/A,,Clear,220,2013-01-11 07:15:00
1:35 AM,39.2,32.0,75,29.68,10.0,SW,18.4,-,N/A,,Clear,230,2013-01-11 07:35:00
1:55 AM,41.0,32.0,70,29.67,10.0,SW,20.7,-,N/A,,Clear,220,2013-01-11 07:55:00
2:15 AM,42.8,32.0,66,29.67,10.0,SW,21.9,-,N/A,,Clear,220,2013-01-11 08:15:00
2:35 AM,42.8,32.0,66,29.67,10.0,SW,19.6,-,N/A,,Clear,220,2013-01-11 08:35:00
2:55 AM,42.8,32.0,66,29.66,10.0,SW,19.6,-,N/A,,Clear,220,2013-01-11 08:55:00
3:15 AM,41.0,32.0,70,29.65,10.0,SW,18.4,-,N/A,,Clear,220,2013-01-11 09:15:00
3:35 AM,41.0,32.0,70,29.64,10.0,SSW,18.4,-,N/A,,Clear,210,2013-01-11 09:35:00
3:55 AM,41.0,32.0,70,29.64,10.0,SSW,15.0,-,N/A,,Clear,210,2013-01-11 09:55:00
4:15 AM,37.4,32.0,81,29.64,10.0,SSW,18.4,-,N/A,,Clear,210,2013-01-11 10:15:00
4:35 AM,39.2,32.0,75,29.62,10.0,SSW,17.3,23.0,N/A,,Clear,210,2013-01-11 10:35:00
4:55 AM,39.2,32.0,75,29.61,10.0,SSW,16.1,-,N/A,,Clear,210,2013-01-11 10:55:00
5:15 AM,37.4,32.0,81,29.60,10.0,SW,17.3,-,N/A,,Clear,220,2013-01-11 11:15:00
5:55 AM,41.0,32.0,70,29.60,10.0,SW,18.4,-,N/A,,Clear,230,2013-01-11 11:55:00
6:15 AM,41.0,32.0,70,29.59,10.0,SW,16.1,-,N/A,,Clear,230,2013-01-11 12:15:00
6:35 AM,41.0,32.0,70,29.59,10.0,SW,21.9,-,N/A,,Clear,220,2013-01-11 12:35:00
6:55 AM,41.0,32.0,70,29.59,10.0,SW,24.2,-,N/A,,Clear,230,2013-01-11 12:55:00
7:15 AM,42.8,32.0,66,29.58,10.0,SW,23.0,-,N/A,,Clear,220,2013-01-11 13:15:00
7:35 AM,39.2,32.0,75,29.59,10.0,SSW,15.0,-,N/A,,Clear,210,2013-01-11 13:35:00
7:55 AM,41.0,32.0,70,29.58,10.0,SSW,16.1,-,N/A,,Clear,200,2013-01-11 13:55:00
8:15 AM,41.0,32.0,70,29.58,10.0,SSW,18.4,-,N/A,,Clear,210,2013-01-11 14:15:00
8:35 AM,41.0,32.0,70,29.59,10.0,SSW,16.1,-,N/A,,Clear,210,2013-01-11 14:35:00
8:55 AM,44.6,32.0,61,29.59,10.0,SSW,19.6,25.3,N/A,,Clear,210,2013-01-11 14:55:00
9:15 AM,46.4,32.0,57,29.60,10.0,SSW,24.2,28.8,N/A,,Clear,210,2013-01-11 15:15:00
9:35 AM,50.0,32.0,50,29.60,10.0,SW,28.8,39.1,N/A,,Clear,220,2013-01-11 15:35:00
9:55 AM,51.8,32.0,47,29.60,10.0,SSW,29.9,36.8,N/A,,Clear,210,2013-01-11 15:55:00
10:15 AM,53.6,32.0,44,29.60,10.0,SSW,33.4,47.2,N/A,,Clear,210,2013-01-11 16:15:00
10:35 AM,53.6,32.0,44,29.60,10.0,SSW,33.4,44.9,N/A,,Clear,210,2013-01-11 16:35:00
10:55 AM,53.6,32.0,44,29.60,10.0,SSW,35.7,43.7,N/A,,Clear,210,2013-01-11 16:55:00
11:55 AM,55.4,32.0,41,29.60,10.0,SW,40.3,48.3,N/A,,Clear,220,2013-01-11 17:55:00
12:15 PM,53.6,30.2,41,29.59,10.0,SW,39.1,48.3,N/A,,Clear,220,2013-01-11 18:15:00
12:35 PM,53.6,26.6,35,29.58,5.0,SW,47.2,56.4,N/A,,Haze,220,2013-01-11 18:35:00
12:55 PM,55.4,26.6,33,29.58,7.0,SW,39.1,52.9,N/A,,Overcast,230,2013-01-11 18:55:00
1:15 PM,53.6,28.4,38,29.60,10.0,WSW,35.7,46.0,N/A,,Overcast,250,2013-01-11 19:15:00
1:35 PM,51.8,28.4,41,29.60,10.0,WSW,36.8,43.7,N/A,,Mostly Cloudy,250,2013-01-11 19:35:00
2:15 PM,51.8,26.6,38,29.61,10.0,WSW,35.7,43.7,N/A,,Mostly Cloudy,240,2013-01-11 20:15:00
2:35 PM,50.0,23.0,35,29.62,10.0,WSW,38.0,44.9,N/A,,Scattered Clouds,240,2013-01-11 20:35:00
2:55 PM,50.0,23.0,35,29.62,10.0,WSW,38.0,46.0,N/A,,Mostly Cloudy,240,2013-01-11 20:55:00
3:15 PM,50.0,21.2,32,29.63,10.0,WSW,38.0,48.3,N/A,,Mostly Cloudy,240,2013-01-11 21:15:00
3:35 PM,50.0,21.2,32,29.65,10.0,WSW,35.7,47.2,N/A,,Overcast,250,2013-01-11 21:35:00
3:55 PM,48.2,19.4,32,29.66,10.0,WSW,33.4,40.3,N/A,,Overcast,250,2013-01-11 21:55:00
4:15 PM,48.2,17.6,30,29.66,10.0,WSW,31.1,35.7,N/A,,Overcast,250,2013-01-11 22:15:00
4:35 PM,46.4,14.0,27,29.67,10.0,WSW,31.1,39.1,N/A,,Overcast,250,2013-01-11 22:35:00
4:55 PM,46.4,12.2,25,29.67,10.0,WSW,28.8,35.7,N/A,,Mostly Cloudy,250,2013-01-11 22:55:00
5:15 PM,44.6,10.4,25,29.68,10.0,West,29.9,35.7,N/A,,Scattered Clouds,260,2013-01-11 23:15:00
5:35 PM,42.8,8.6,25,29.69,10.0,WSW,26.5,34.5,N/A,,Scattered Clouds,250,2013-01-11 23:35:00
5:55 PM,41.0,10.4,29,29.70,10.0,WSW,19.6,-,N/A,,Scattered Clouds,250,2013-01-11 23:55:00
6:15 PM,41.0,12.2,31,29.72,10.0,WSW,18.4,-,N/A,,Clear,250,2013-01-12 00:15:00
6:35 PM,39.2,12.2,33,29.73,10.0,WSW,18.4,-,N/A,,Clear,250,2013-01-12 00:35:00
6:55 PM,37.4,12.2,36,29.74,10.0,WSW,18.4,-,N/A,,Clear,250,2013-01-12 00:55:00
7:15 PM,37.4,12.2,36,29.74,10.0,WSW,20.7,-,N/A,,Clear,250,2013-01-12 01:15:00
7:35 PM,35.6,12.2,38,29.75,10.0,WSW,17.3,-,N/A,,Clear,250,2013-01-12 01:35:00
7:55 PM,35.6,12.2,38,29.77,10.0,WSW,17.3,24.2,N/A,,Clear,250,2013-01-12 01:55:00
8:15 PM,35.6,12.2,38,29.77,10.0,WSW,18.4,-,N/A,,Clear,250,2013-01-12 02:15:00
8:35 PM,33.8,14.0,44,29.78,10.0,WSW,13.8,-,N/A,,Clear,250,2013-01-12 02:35:00
8:55 PM,33.8,14.0,44,29.79,10.0,West,16.1,-,N/A,,Clear,260,2013-01-12 02:55:00
9:15 PM,32.0,14.0,48,29.80,10.0,West,16.1,-,N/A,,Clear,270,2013-01-12 03:15:00
9:35 PM,32.0,14.0,48,29.81,10.0,West,16.1,-,N/A,,Clear,270,2013-01-12 03:35:00
9:55 PM,32.0,14.0,48,29.82,10.0,West,13.8,-,N/A,,Clear,280,2013-01-12 03:55:00
10:15 PM,32.0,14.0,48,29.83,10.0,West,11.5,-,N/A,,Clear,280,2013-01-12 04:15:00
10:35 PM,32.0,14.0,48,29.83,10.0,West,15.0,-,N/A,,Clear,280,2013-01-12 04:35:00
10:55 PM,32.0,14.0,48,29.84,10.0,WNW,12.7,-,N/A,,Clear,290,2013-01-12 04:55:00
11:15 PM,30.2,14.0,51,29.84,10.0,WNW,4.6,-,N/A,,Clear,300,2013-01-12 05:15:00
11:35 PM,28.4,14.0,55,29.85,10.0,WNW,6.9,-,N/A,,Clear,300,2013-01-12 05:35:00
11:55 PM,28.4,14.0,55,29.86,10.0,West,6.9,-,N/A,,Clear,280,2013-01-12 05:55:00